"Pseudo-MPEC" for P11ZQp7

Created 2024 Oct 22 8:31:09 UT using Find_Orb

Click here for an explanation of pseudo-MPECs

 
 Astrometry: 
     P11ZQp7* C2024 10 01.53249503 22 05.162-43 51 11.76   ~A1E7 21.31wXNEOCPF51
     P11ZQp7  C2024 10 01.53964103 22 04.846-43 51 14.49   ~A1E7 21.26wXNEOCPF51
     P11ZQp7  C2024 10 01.54675303 22 04.535-43 51 17.21   ~A1E7 21.06wXNEOCPF51
     P11ZQp7  C2024 10 01.55385003 22 04.207-43 51 19.91   ~A1E7 21.44wXNEOCPF51
     P11ZQp7 |C2024 10 02.29924003 21 32.640-43 55 51.40   ~A297 20.9 GVNEOCP807
     P11ZQp7 |C2024 10 02.30294203 21 32.460-43 55 52.60   ~A297 20.6 GVNEOCP807
     P11ZQp7 |C2024 10 02.30663003 21 32.290-43 55 53.90   ~A297 20.8 GVNEOCP807

Station data:
(807) Cerro Tololo Observatory, La Serena  (S30.169133 W70.805900)  Chile.
   Observer R. Holmes. 0.61-m f/6.5 astrograph + CCD.
(F51) Pan-STARRS 1, Haleakala  (N20.707234 W156.255910)  US/Hawaii.
   Observers J. Bulger, T. Lowe, A. Schultz, M. Willman. Measurers K.
   Chambers, S. Chastel, T. de Boer, L. Denneau, J. Fairlamb, H. Flewelling,
   M. Huber, C.-C. Lin, E. Magnier, Y. Ramanjooloo, R. Wainscoat, R. Weryk.
   1.8-m Ritchey-Chrétien + CCD.

Orbital elements:  P11ZQp7
   Perihelion 2023 Dec 18.91314 +/- 552 TT = 21:54:55 (JD 2460297.41314)
Epoch 2024 Oct  2.0 TT = JDT 2460585.5                           AutoNEOCP
M  27.32731816 +/- 60               (J2000 ecliptic)
n   0.09485791 +/- 0.0973           Peri.  190.67474 +/- 100
a   4.76160833 +/- 3.26             Node   102.98850 +/- 44
e   0.5452676 +/- 0.251             Incl.   43.86758 +/- 25
P  10.39036                H 15.70  G  0.15   U 11.2  SR
q 2.16525736 +/- 1.42    Q 7.35795929 +/- 12.5
From 7 observations 2024 Oct. 1-2 (18.6 hr); mean residual 0".08
Residuals in arcseconds: 
241001 F51  .08+  .09+    241001 F51  .15-  .09-    241002 807  .08-  .08+    
241001 F51  .04+  .03+    241002 807  .13+  .10-    
241001 F51  .04+  .03-    241002 807  .03-  .04+    

Ephemerides (geocentric):
Date (UTC) HH   RA             Dec           delta  r     elong  mag " sig PA
---- --------  ------------   ------------  ------ ------ -----  --- --------
2024 10 22 09  03 03 15.069   -44 59 15.05  2.6340 3.2643 121.4 21.2 3188  47
2024 10 22 10  03 03 12.456   -44 59 15.03  2.6343 3.2645 121.4 21.2 3201  47
2024 10 22 11  03 03 09.842   -44 59 14.98  2.6345 3.2647 121.3 21.2 3215  46
2024 10 22 12  03 03 07.227   -44 59 14.89  2.6347 3.2650 121.3 21.2 3228  46
2024 10 22 13  03 03 04.612   -44 59 14.77  2.6350 3.2652 121.3 21.2 3242  46
2024 10 22 14  03 03 01.996   -44 59 14.61  2.6352 3.2654 121.3 21.2 3256  46
2024 10 22 15  03 02 59.380   -44 59 14.42  2.6355 3.2656 121.3 21.2 3269  46
2024 10 22 16  03 02 56.762   -44 59 14.20  2.6357 3.2658 121.3 21.2 3283  46
2024 10 22 17  03 02 54.144   -44 59 13.94  2.6360 3.2660 121.3 21.2 3297  46
2024 10 22 18  03 02 51.526   -44 59 13.64  2.6362 3.2662 121.3 21.2 3311  46
2024 10 22 19  03 02 48.906   -44 59 13.31  2.6365 3.2664 121.3 21.2 3325  46
2024 10 22 20  03 02 46.286   -44 59 12.94  2.6367 3.2667 121.3 21.2 3338  46
2024 10 22 21  03 02 43.666   -44 59 12.54  2.6369 3.2669 121.3 21.2 3352  46
2024 10 22 22  03 02 41.044   -44 59 12.10  2.6372 3.2671 121.3 21.2 3366  46
2024 10 22 23  03 02 38.423   -44 59 11.63  2.6374 3.2673 121.3 21.2 3380  46
2024 10 23 00  03 02 35.800   -44 59 11.13  2.6377 3.2675 121.3 21.2 3394  46
2024 10 23 01  03 02 33.177   -44 59 10.59  2.6379 3.2677 121.3 21.2 3408  46
2024 10 23 02  03 02 30.553   -44 59 10.01  2.6382 3.2679 121.3 21.2 3422  46
2024 10 23 03  03 02 27.928   -44 59 09.40  2.6384 3.2682 121.3 21.2 3436  46
2024 10 23 04  03 02 25.303   -44 59 08.75  2.6387 3.2684 121.3 21.2 3451  46
2024 10 23 05  03 02 22.678   -44 59 08.07  2.6389 3.2686 121.3 21.2 3465  46
2024 10 23 06  03 02 20.051   -44 59 07.36  2.6392 3.2688 121.3 21.2 3479  46
2024 10 23 07  03 02 17.424   -44 59 06.60  2.6394 3.2690 121.3 21.2 3493  46
2024 10 23 08  03 02 14.797   -44 59 05.82  2.6397 3.2692 121.3 21.2 3507  46
2024 10 23 09  03 02 12.169   -44 59 05.00  2.6399 3.2694 121.3 21.2 3522  46
2024 10 23 10  03 02 09.540   -44 59 04.14  2.6401 3.2697 121.3 21.2 3536  46
2024 10 23 11  03 02 06.910   -44 59 03.25  2.6404 3.2699 121.3 21.2 3550  46
2024 10 23 12  03 02 04.280   -44 59 02.32  2.6406 3.2701 121.3 21.2 3565  46
2024 10 23 13  03 02 01.650   -44 59 01.36  2.6409 3.2703 121.3 21.2 3579  46
2024 10 23 14  03 01 59.019   -44 59 00.36  2.6411 3.2705 121.3 21.2 3593  46
2024 10 23 15  03 01 56.387   -44 58 59.33  2.6414 3.2707 121.3 21.2 3608  46
2024 10 23 16  03 01 53.755   -44 58 58.26  2.6416 3.2709 121.3 21.2 3622  46
2024 10 23 17  03 01 51.122   -44 58 57.16  2.6419 3.2711 121.3 21.2 3637  46
2024 10 23 18  03 01 48.489   -44 58 56.02  2.6421 3.2714 121.3 21.2 3651  46
2024 10 23 19  03 01 45.855   -44 58 54.85  2.6424 3.2716 121.3 21.2 3666  46
2024 10 23 20  03 01 43.220   -44 58 53.64  2.6426 3.2718 121.3 21.2 3681  46
2024 10 23 21  03 01 40.585   -44 58 52.40  2.6429 3.2720 121.3 21.2 3695  46
2024 10 23 22  03 01 37.949   -44 58 51.12  2.6432 3.2722 121.3 21.2 3710  46
2024 10 23 23  03 01 35.313   -44 58 49.81  2.6434 3.2724 121.3 21.2 3725  46
2024 10 24 00  03 01 32.677   -44 58 48.46  2.6437 3.2726 121.3 21.2 3739  46
2024 10 24 01  03 01 30.039   -44 58 47.08  2.6439 3.2729 121.3 21.2 3754  46
2024 10 24 02  03 01 27.402   -44 58 45.66  2.6442 3.2731 121.3 21.2 3769  46
2024 10 24 03  03 01 24.764   -44 58 44.20  2.6444 3.2733 121.3 21.2 3784  46
2024 10 24 04  03 01 22.125   -44 58 42.72  2.6447 3.2735 121.3 21.2 3799  46
2024 10 24 05  03 01 19.486   -44 58 41.19  2.6449 3.2737 121.3 21.2 3814  46
2024 10 24 06  03 01 16.846   -44 58 39.63  2.6452 3.2739 121.3 21.2 3829  46
2024 10 24 07  03 01 14.206   -44 58 38.04  2.6454 3.2741 121.3 21.2 3844  46
2024 10 24 08  03 01 11.565   -44 58 36.41  2.6457 3.2743 121.3 21.2 3859  46